Location: ?
(35.6144°N, 139.6873°E)
Time: 14:29:59
(UTC+00:00)

Resurs 01 Rocket - Pass Details

Date: 23 May 2024
Orbit: 629 x 641 km, 97.8° (Epoch: 15 June)

Event Time Altitude Azimuth Distance (km) Brightness Sun altitude
Exits shadow 11:30:25 - 202° (SSW) 2,452 4.4 -18.3°
Reaches altitude 10° 11:31:40 10° 211° (SSW) 2,026 4.1 -18.4°
Maximum altitude 11:35:14 24° 264° (W) 1,337 3.7 -19.0°
Drops below altitude 10° 11:38:49 10° 318° (NW) 2,035 5.4 -19.5°
Sets 11:41:24 0° 333° (NNW) 2,947 6.4 -19.8°
